Dewpoint
55 55 55 55 55 55 55 56 55 56 56 57 57 57 57 58 58 58 58 58 58 58 58 58 57 57 57 58 58 59 58 55 52 49 47 41 47 60 69 66 69 66 71 55 57 54 51 59 57 61 60 61 58 50 55 60 49 45 45 41 41 40 37 39 37 40 42 46 50 51 53 53 53 56 58 58 58 58 59 60 62 64 64 65 66 67 68 69
55 54 55 55 55 55 55 56 55 56 56 56 56 57 57 57 57 57 58 58 58 58 57 58 57 57 57 58 58 59 57 55 48 48 47 47 62 64 67 69 71 71 64 49 47 39 33 40 42 58 53 54 46 45 54 52 49 43 43 42 39 39 39 42 38 40 44 47 49 51 53 53 53 57 57 55 56 57 59 60 63 64 65 66 67 67 68 69
55 54 54 54 54 55 55 55 55 56 56 56 57 57 57 57 57 57 57 57 57 57 57 57 57 57 57 58 59 58 56 51 45 24 20 66 66 65 67 68 71 71 43 45 44 37 25 30 39 46 46 38 40 42 47 42 46 42 41 40 42 40 39 42 39 39 45 47 48 51 52 53 55 56 56 54 55 57 58 60 62 64 65 66 67 67 68 69
55 54 54 54 54 54 55 55 56 56 56 56 56 56 56 56 56 57 57 57 57 57 57 57 57 57 57 58 58 57 54 51 14 13 19 64 73 67 67 68 71 69 41 44 44 37 32 34 33 33 35 32 33 41 40 39 44 42 41 41 40 40 38 40 40 40 43 47 49 51 52 54 55 55 54 55 55 55 57 59 60 63 65 66 67 67 68 68
54 54 54 54 54 54 54 55 56 55 55 56 56 56 56 56 56 57 57 57 56 57 57 56 57 57 57 58 58 55 51 8 5 11 17 70 70 73 70 69 71 61 41 42 39 36 33 32 35 37 34 32 36 37 37 38 41 40 41 41 41 39 38 40 41 41 43 47 50 51 51 54 55 54 54 55 52 53 55 58 61 64 66 66 67 68 68 68
54 54 53 53 54 54 54 55 55 55 55 55 55 56 55 55 56 57 56 56 57 56 56 56 57 57 58 58 57 55 26 14 12 20 74 69 68 70 71 71 71 54 40 37 36 36 31 33 30 32 33 33 33 31 31 36 38 33 33 36 41 39 39 42 41 42 45 48 49 50 52 55 54 54 54 54 52 53 56 59 62 65 66 67 67 68 68 68
53 53 53 53 53 53 54 54 55 55 55 55 55 55 56 56 56 56 55 56 56 56 56 56 57 57 58 58 53 50 28 19 28 23 57 74 74 73 74 73 71 48 40 36 35 32 32 33 22 33 31 32 32 29 29 29 32 32 27 33 39 39 40 42 42 43 45 48 48 50 54 54 53 53 54 53 55 55 58 61 64 66 67 67 67 68 68 68
53 53 53 53 53 53 53 54 54 54 55 55 55 55 55 56 56 56 56 56 56 56 56 56 56 57 59 56 42 24 28 27 32 29 66 74 69 72 69 62 53 47 40 35 31 29 32 31 21 33 32 31 32 29 30 29 30 31 28 30 35 39 42 43 43 43 45 47 48 52 53 53 53 53 54 54 56 58 60 63 65 66 66 67 67 67 68 68
53 53 53 53 53 53 53 54 54 55 54 55 55 55 55 55 55 55 56 56 56 56 56 56 56 58 58 56 30 24 28 26 27 41 68 63 62 59 58 54 47 44 39 35 32 30 28 30 32 32 27 32 31 31 30 24 21 26 25 37 39 39 43 43 43 43 45 46 49 52 52 52 53 54 53 55 58 60 62 63 65 66 66 66 67 67 68 68
52 52 52 53 53 53 53 53 54 54 54 55 55 55 55 55 55 55 55 55 56 56 56 56 57 58 56 51 22 27 31 26 36 56 62 58 54 53 44 50 44 37 35 34 30 32 25 24 30 34 34 32 30 29 28 23 20 24 35 40 39 43 44 43 43 45 46 47 50 50 50 51 53 53 52 56 60 61 62 63 65 66 66 66 67 67 68 68
52 52 52 53 53 53 53 53 54 54 55 55 55 54 55 55 55 55 55 55 56 56 56 57 58 57 53 54 26 28 31 47 50 53 56 51 49 47 43 47 41 36 36 37 31 31 25 31 34 34 33 29 26 27 25 23 27 39 42 44 45 45 45 45 47 49 50 49 49 51 51 53 53 55 52 56 61 61 61 62 64 65 65 66 66 67 68 68
52 52 52 52 52 52 53 53 53 54 54 54 54 54 55 55 55 55 55 56 56 56 56 57 59 55 55 44 31 32 32 45 39 39 50 46 41 46 41 46 43 38 33 34 37 36 35 34 33 33 28 30 27 28 23 25 33 39 43 43 45 46 47 48 48 50 49 51 52 53 52 52 53 51 55 59 61 61 61 62 63 64 64 65 66 66 67 67
52 52 52 52 52 52 53 53 53 53 54 54 54 54 54 54 54 54 55 56 57 57 58 59 58 57 50 37 37 35 35 34 34 36 36 39 42 43 41 41 42 36 33 32 34 36 36 36 32 28 31 28 28 22 28 31 40 43 44 45 44 45 46 48 50 51 51 52 53 51 47 50 52 53 56 61 61 61 61 62 62 63 64 64 65 66 66 67
52 52 52 51 52 52 52 53 53 53 53 53 53 53 53 53 54 55 57 56 57 57 58 59 59 57 43 36 37 36 36 37 38 41 40 40 37 34 36 37 39 35 33 30 28 28 35 33 30 29 31 24 23 24 23 28 38 41 43 43 44 43 44 47 50 51 50 53 52 50 44 48 51 54 57 61 61 61 61 62 62 63 63 64 65 65 66 66
51 51 52 52 52 52 52 53 53 52 53 53 53 53 53 53 54 56 58 58 58 58 59 60 57 55 48 44 45 45 63 56 54 52 43 33 32 30 30 33 34 35 30 31 29 32 31 30 27 25 23 26 24 22 25 28 34 42 40 40 41 42 43 46 47 50 49 52 53 47 46 46 51 54 57 60 61 61 61 62 62 63 63 64 64 64 65 65
52 51 51 52 52 52 52 53 52 52 52 53 53 52 53 53 55 58 58 58 59 59 59 57 56 54 45 38 39 50 48 43 39 45 47 35 31 28 30 31 30 33 32 32 32 40 30 24 23 23 23 21 22 23 28 38 38 36 38 40 41 39 43 46 45 48 51 52 52 46 42 52 53 55 56 59 61 61 61 61 62 62 63 63 64 64 64 65
51 51 51 52 52 52 52 52 53 52 52 52 52 52 53 55 57 58 58 60 60 59 59 55 55 58 38 38 43 39 36 41 46 38 42 37 32 30 25 25 26 27 30 28 30 30 27 27 27 25 24 16 18 23 28 30 36 38 33 39 42 40 43 44 46 46 47 51 49 51 51 51 54 55 56 58 60 60 60 60 61 62 62 63 63 64 64 64
51 51 51 51 52 52 52 52 52 53 52 51 51 51 51 54 56 59 59 59 58 58 57 58 56 40 33 37 36 34 39 35 36 36 36 39 34 31 28 25 23 23 24 22 22 21 23 21 18 18 21 19 21 21 23 27 36 37 34 38 38 38 43 43 44 46 46 48 48 49 50 52 54 55 55 57 59 59 59 59 59 60 61 62 62 63 63 63
51 51 51 51 52 52 52 52 52 52 52 51 52 52 55 56 56 55 54 55 45 36 27 43 40 30 20 28 34 34 35 36 37 38 36 35 38 30 24 23 19 19 19 20 19 20 20 17 21 19 15 21 17 18 17 23 36 37 32 38 37 37 40 42 44 46 46 48 46 48 46 51 53 54 55 56 57 57 58 58 58 59 60 61 61 62 62 63
51 51 51 51 52 52 52 52 52 52 51 50 48 47 42 27 32 24 47 55 43 28 23 25 42 37 35 33 30 33 38 40 36 36 37 37 30 30 29 19 18 18 17 17 19 19 18 15 16 14 15 19 19 19 17 23 37 37 31 35 37 37 40 43 44 43 47 47 46 47 49 51 53 54 55 55 56 56 56 57 57 57 58 59 60 60 61 62
51 51 51 51 52 52 52 52 52 51 51 49 46 31 18 24 26 21 31 30 30 34 33 32 30 32 30 31 35 35 32 34 35 35 38 45 29 31 30 19 14 15 16 17 14 18 17 17 16 16 15 19 22 22 24 27 33 34 29 30 30 31 35 40 40 45 46 45 45 48 50 51 53 54 54 55 55 55 55 56 56 56 57 58 59 59 59 60
51 51 51 52 52 51 52 52 51 51 51 47 36 23 23 30 33 31 32 28 30 31 32 34 34 34 34 33 32 35 37 35 32 31 35 37 33 31 30 21 13 11 16 17 17 18 16 14 14 16 17 19 25 25 25 25 26 28 27 27 27 28 32 34 40 45 46 44 44 47 48 50 53 54 54 55 55 55 55 55 55 56 56 57 57 58 58 59
51 51 51 51 51 52 51 51 50 50 46 38 33 34 31 30 33 35 33 30 29 31 30 31 31 32 32 34 36 37 34 34 30 29 34 37 30 31 24 23 16 12 16 15 12 18 15 14 15 16 18 22 27 26 25 24 23 23 26 27 26 30 29 29 34 44 45 43 43 48 46 48 52 55 54 55 55 55 55 55 55 55 56 56 57 57 58 58
51 51 51 51 51 51 51 50 50 47 42 40 39 36 34 33 33 32 35 29 22 23 30 30 30 29 29 28 34 36 34 34 34 31 35 30 28 29 23 23 18 14 12 13 13 14 15 17 17 17 19 20 22 26 25 24 24 23 25 27 27 30 29 30 32 43 45 45 47 46 46 46 49 52 53 54 55 55 55 55 55 55 56 57 57 57 58 58
50 51 51 51 51 51 50 50 44 43 43 37 40 40 38 35 37 32 35 31 28 28 32 30 31 30 29 38 38 35 35 37 36 34 36 31 26 25 25 25 20 17 15 13 13 12 12 15 19 19 20 20 20 25 24 24 25 23 22 23 26 30 30 36 40 41 40 40 44 44 39 41 46 50 52 53 53 54 55 55 55 55 56 57 57 57 57 58
50 51 51 51 51 51 50 36 41 45 40 28 22 38 39 35 35 36 34 30 25 26 30 28 32 28 36 35 38 37 36 33 37 37 32 31 31 28 26 22 24 21 16 13 12 15 12 15 18 18 21 21 19 21 25 24 24 23 24 23 24 30 31 36 40 40 39 39 40 44 38 38 42 47 50 52 52 53 53 54 54 55 56 57 57 57 57 57
51 51 51 51 51 50 42 34 45 43 22 15 41 40 37 36 41 36 31 24 19 27 26 33 31 31 37 34 34 32 22 22 33 38 36 42 27 27 24 22 18 22 17 17 20 13 16 14 18 22 19 19 19 18 22 24 24 24 26 22 21 27 32 36 39 38 39 43 43 43 41 38 38 42 48 50 51 51 52 52 53 54 55 56 57 57 58 58
51 51 51 51 51 51 47 47 46 42 32 23 42 40 37 38 40 37 30 21 19 25 35 35 32 33 34 33 32 28 25 26 27 30 36 35 27 25 26 20 17 16 15 16 15 17 12 12 14 17 22 20 17 18 23 25 23 27 26 21 20 24 31 36 37 36 38 38 39 43 44 38 38 41 48 49 49 49 50 51 51 52 54 55 57 57 58 58
51 51 51 51 50 50 50 48 46 41 41 43 42 40 39 40 37 32 26 17 22 30 28 26 28 28 29 34 32 29 27 28 24 29 32 30 27 23 23 21 16 15 13 17 18 14 14 12 12 14 16 18 25 24 24 25 22 23 23 23 21 21 29 35 35 35 38 37 36 41 40 37 36 41 46 48 48 48 49 50 50 51 52 53 55 57 58 58
51 51 51 50 50 47 46 49 46 44 42 43 44 42 41 38 32 29 25 17 30 19 28 26 24 22 29 31 30 30 26 25 28 25 28 26 26 24 24 19 16 15 15 14 16 15 13 35 28 13 12 14 19 23 24 24 23 22 19 17 20 31 33 41 39 38 36 33 35 39 41 38 34 39 44 46 46 47 48 49 50 51 51 52 54 55 57 58
50 50 50 50 47 47 46 40 40 43 44 44 43 40 36 34 31 27 22 20 24 21 27 25 23 25 23 23 22 26 27 26 25 24 22 25 23 22 21 19 13 16 15 14 9 12 11 12 20 18 31 16 16 20 24 24 24 19 20 21 18 27 28 32 34 36 32 31 35 35 40 39 34 36 42 46 46 47 47 47 48 49 50 50 52 53 56 57
49 49 50 49 49 48 42 27 29 42 43 40 36 30 21 18 21 22 21 29 20 22 22 22 25 24 22 25 24 26 24 25 25 24 22 21 21 19 18 20 16 15 15 14 14 15 8 9 12 11 40 14 15 13 17 23 21 21 21 23 20 24 25 21 30 28 28 27 31 33 39 39 38 36 39 44 45 46 47 46 47 48 49 50 50 52 54 56
49 49 49 50 50 49 48 41 41 43 43 38 36 26 23 21 16 23 20 24 17 27 24 26 23 22 21 18 17 22 26 22 24 22 23 23 21 20 18 19 16 15 16 24 11 9 11 13 10 11 11 25 14 10 18 18 20 19 20 23 21 18 17 16 24 26 26 28 30 31 40 37 39 38 40 40 42 45 46 47 47 47 49 49 50 52 53 55
48 49 48 48 48 48 48 48 48 46 42 45 33 22 25 22 21 44 16 20 17 24 24 25 22 21 21 17 16 23 20 24 22 22 22 22 19 19 19 18 17 18 17 19 11 7 9 9 8 8 9 16 16 12 15 20 18 20 21 18 22 22 19 17 22 21 23 25 31 38 36 37 34 37 39 38 40 42 45 46 48 51 49 49 50 51 53 54
48 48 47 45 46 47 47 47 47 49 41 33 19 16 14 14 23 22 27 26 26 25 22 23 20 21 19 20 21 23 23 21 24 19 20 18 18 19 18 17 17 17 17 13 16 17 7 9 13 13 10 15 13 19 19 20 19 18 20 22 22 19 29 17 23 24 26 25 26 35 36 37 36 39 40 50 47 42 45 45 48 46 47 49 50 51 53 54
47 45 46 44 47 47 46 47 46 45 37 14 12 15 9 14 10 23 19 29 26 24 22 20 22 20 19 20 26 20 24 22 24 21 20 20 19 18 19 18 15 16 15 15 21 13 17 8 11 19 18 12 14 21 19 17 14 20 19 18 19 23 19 33 38 32 26 23 21 36 32 32 32 35 35 44 46 44 44 43 44 45 47 49 50 51 53 55
46 46 40 42 44 47 46 46 46 43 36 5 4 2 10 14 18 24 42 22 19 21 21 17 19 20 19 17 21 21 19 19 22 21 22 19 18 18 19 18 18 15 16 16 19 18 12 16 16 10 11 13 12 19 17 17 18 17 17 18 26 28 25 25 16 26 23 19 23 30 29 28 31 30 42 41 41 41 43 42 43 45 47 47 48 51 53 55
46 44 46 47 47 47 47 46 45 41 24 2 -1 35 24 7 12 16 19 15 20 18 15 21 19 20 18 24 18 20 19 16 16 23 24 19 17 19 18 18 18 15 15 16 15 19 15 12 13 13 9 14 17 15 12 15 20 15 16 22 15 22 19 28 25 20 20 20 21 24 28 31 31 31 37 36 39 38 43 45 45 45 46 46 47 50 53 55
44 43 31 42 47 47 46 46 43 35 14 3 1 15 30 8 18 20 22 22 18 18 13 17 16 21 21 19 20 23 20 16 18 19 21 20 18 21 16 18 17 16 15 15 14 23 17 12 18 20 12 14 16 10 6 6 19 17 20 18 27 22 28 24 23 25 23 19 22 20 25 24 33 30 31 31 36 38 39 45 44 44 45 45 47 49 52 54
43 29 20 46 47 47 46 44 41 34 9 -1 7 4 18 20 17 21 18 18 13 11 12 18 20 17 21 19 22 17 23 20 16 16 18 21 18 20 16 18 18 17 15 16 14 22 17 19 13 17 18 15 12 14 4 5 9 13 16 17 20 26 24 23 29 25 22 25 22 21 21 27 30 33 31 31 34 39 42 43 45 45 45 45 46 49 52 53
44 30 26 44 46 46 46 44 35 26 17 24 19 9 19 11 18 21 21 23 19 21 16 19 21 20 21 19 17 21 19 20 20 18 18 18 18 19 20 15 17 15 16 14 13 16 19 18 13 20 22 14 11 15 11 7 10 13 13 15 16 17 20 17 17 24 28 26 22 20 18 27 29 38 35 32 35 39 44 43 44 45 45 46 46 48 51 52
40 13 28 46 46 43 35 29 32 35 28 31 8 21 17 26 21 18 14 18 15 11 18 18 16 15 15 16 15 25 22 20 18 19 21 17 21 18 20 19 16 16 13 15 13 15 16 27 16 14 13 13 15 15 23 14 12 13 14 13 15 16 21 20 17 22 24 24 30 27 21 23 31 36 35 33 35 41 45 45 44 45 46 46 47 48 50 52
38 27 26 37 38 39 34 30 41 42 35 31 33 33 28 25 25 23 18 18 18 17 17 16 16 17 17 14 18 18 19 20 23 19 19 21 22 19 19 19 18 18 14 15 14 14 43 18 19 19 24 20 19 21 23 21 15 14 13 14 14 14 15 15 20 26 23 27 25 22 22 26 33 47 48 43 48 48 49 47 46 46 47 47 47 48 50 52
41 39 40 43 45 40 31 28 32 33 32 32 32 32 34 31 30 30 22 19 18 19 13 15 16 14 13 17 17 20 22 22 22 21 23 28 19 22 20 20 21 18 15 18 14 34 18 26 19 16 15 15 15 18 15 22 17 15 13 15 15 15 16 20 27 31 20 25 24 22 19 26 34 50 48 49 48 48 47 48 48 47 48 48 48 49 51 53
42 43 42 43 49 41 30 30 31 32 34 31 30 30 29 29 32 31 31 29 30 23 26 26 26 25 19 23 21 24 26 21 23 23 21 22 22 31 31 34 28 22 18 24 45 24 15 25 20 15 15 13 13 13 13 13 17 19 24 15 16 14 19 22 20 25 20 30 29 24 24 29 32 40 44 47 48 48 48 48 48 48 49 48 49 50 52 53
40 35 35 37 37 36 39 37 31 32 34 34 34 33 30 28 30 30 30 30 30 29 27 27 26 23 21 20 21 22 21 23 22 29 34 30 31 35 37 37 37 32 39 47 50 24 24 31 22 19 15 14 18 23 27 34 24 15 16 15 14 15 18 18 29 24 19 27 26 28 30 28 29 31 38 41 46 45 46 48 48 48 49 50 52 52 51 52
42 37 38 34 38 35 33 31 33 34 33 34 32 34 31 29 29 28 29 29 32 29 28 27 26 25 25 23 23 22 23 23 29 27 27 30 32 35 38 38 36 49 58 51 45 27 33 23 23 26 22 19 17 21 21 26 16 15 14 14 14 14 18 18 21 20 30 27 23 33 36 28 28 30 34 39 42 46 47 48 48 49 49 49 50 52 57 53
37 41 40 41 36 32 33 32 36 36 36 37 35 36 31 29 30 33 32 31 28 27 28 27 26 26 25 23 25 23 28 27 30 28 30 31 40 37 35 36 32 45 44 36 39 23 29 18 19 22 18 18 15 15 24 26 16 17 15 14 14 15 17 17 23 21 30 22 21 31 36 31 29 29 31 36 41 44 44 46 47 48 48 51 52 51 52 51
42 41 40 42 37 38 38 38 39 39 37 36 39 40 36 33 33 33 30 27 27 27 28 29 29 31 33 33 31 26 33 30 28 35 34 37 37 38 35 35 35 35 35 35 39 36 27 21 24 19 18 17 17 16 23 22 21 19 16 16 15 14 16 16 18 24 25 29 27 30 36 30 26 28 31 35 41 42 45 46 48 48 47 49 49 50 50 51
37 39 38 41 40 39 39 37 36 36 32 36 42 40 33 34 34 33 33 29 28 26 28 28 28 32 33 34 36 32 32 31 31 28 41 37 36 39 38 36 34 35 36 36 34 39 27 26 35 19 20 17 16 17 17 20 19 17 17 17 16 15 15 16 17 25 32 26 25 29 35 33 33 34 32 39 44 44 43 43 44 46 47 48 48 49 50 50
40 41 42 40 38 38 40 39 36 34 32 35 37 35 32 33 32 32 33 33 28 28 29 29 31 32 33 35 37 35 35 39 40 32 39 37 27 39 35 38 35 36 36 36 36 38 28 29 31 29 22 20 18 16 16 16 17 16 15 15 16 16 20 19 22 26 31 31 33 34 33 31 32 39 44 42 42 43 41 42 43 45 45 48 48 48 50 51
40 42 42 42 37 38 37 35 33 35 32 37 33 31 30 30 31 32 32 30 29 28 28 31 31 31 33 35 41 35 34 34 34 34 35 39 37 37 38 38 36 39 37 37 40 35 33 29 28 25 21 20 17 16 14 16 20 17 17 15 15 16 19 18 25 35 29 27 32 29 27 30 31 41 37 40 39 40 41 41 42 44 46 46 47 48 49 51